Date,TemperatureHighF,TemperatureAvgF,TemperatureLowF,DewpointHighF,DewpointAvgF,DewpointLowF,HumidityHigh,HumidityAvg,HumidityLow,PressureMaxIn,PressureMinIn,WindSpeedMaxMPH,WindSpeedAvgMPH,GustSpeedMaxMPH,PrecipitationSumIn
2013-3-1,28,24,19,20,14,8,71,63,55,30.13,29.98,21,8,21,0.00
2013-3-2,30,21,13,8,5,1,66,50,31,30.17,29.99,18,6,18,0.00
2013-3-3,37,25,14,7,3,-2,56,39,24,30.05,29.92,12,5,12,0.00
2013-3-4,32,26,21,22,14,5,75,61,48,29.94,29.82,27,13,28,0.00
2013-3-5,29,27,26,26,22,19,89,82,72,29.84,29.75,17,9,20,0.00
2013-3-6,31,27,22,20,17,14,72,66,62,30.23,30.18,17,6,17,0.00
2013-3-7,36,26,16,22,16,10,83,66,49,30.32,30.19,15,5,15,0.00
2013-3-8,40,30,20,26,21,15,80,69,54,30.31,30.09,22,12,22,0.00
2013-3-9,40,36,32,39,32,24,98,84,71,30.09,29.64,28,14,30,0.34
2013-3-10,42,39,34,42,38,33,99,98,94,29.65,29.44,24,8,24,0.85
2013-3-11,34,32,29,33,29,23,97,91,80,29.70,29.46,11,2,11,0.06
2013-3-12,34,27,22,26,18,13,85,70,55,29.94,29.70,26,7,26,0.00
2013-3-13,34,26,19,14,9,3,72,52,28,30.27,29.93,23,11,23,0.00
2013-3-14,39,28,21,30,20,11,87,72,55,30.19,29.93,18,7,18,0.00
2013-3-15,38,33,29,33,29,26,93,86,78,29.93,29.62,20,6,20,0.05
2013-3-16,34,30,26,30,22,14,94,75,60,30.03,29.62,17,8,17,0.01
2013-3-17,32,26,20,20,14,6,72,61,48,30.10,29.81,23,12,23,0.00
2013-3-18,34,26,16,30,19,4,89,76,58,29.81,29.52,33,14,33,0.05
2013-3-19,29,20,11,9,4,0,65,51,32,30.02,29.66,29,16,29,0.02
2013-3-20,23,15,7,3,-2,-9,58,47,38,30.04,29.92,30,15,33,0.00
2013-3-21,30,19,7,7,2,-4,62,48,33,30.21,29.88,15,6,15,0.00
2013-3-22,37,26,15,14,9,3,63,47,33,29.98,29.88,11,4,11,0.00
2013-3-23,40,33,24,20,15,9,67,48,35,30.04,29.90,14,5,14,0.00
2013-3-24,33,29,27,26,23,17,89,77,58,29.92,29.67,23,10,23,0.00
2013-3-25,36,30,26,23,19,14,81,61,53,30.00,29.70,26,11,26,0.00
2013-3-26,41,33,26,23,18,16,67,55,44,30.17,29.99,17,7,17,0.00
2013-3-27,44,36,29,25,19,12,74,52,31,30.25,30.15,13,4,13,0.00
2013-3-28,50,39,28,26,20,16,65,46,32,30.29,30.17,11,4,13,0.00
2013-3-29,56,45,37,28,24,18,50,43,31,30.24,30.10,12,5,12,0.00
2013-3-30,54,45,36,43,32,20,94,63,47,30.11,29.74,30,11,30,0.00
2013-3-31,49,40,32,42,31,20,96,72,49,29.84,29.68,34,11,34,0.02